Weather History for Covington, KY

Change the Weather History Date:

Wednesday, December 12, 2012

  Actual Average Record
Temperature  
Mean Temperature 32 °F 35 °F  
Max Temperature 43 °F 42 °F 64 °F (2007)
Min Temperature 20 °F 27 °F -3 °F (1962)
Degree Days  
Heating Degree Days 33 30  
Month to date heating degree days 210 341  
Since 1 July heating degree days 1316 1301  
Cooling Degree Days 0 0  
Month to date cooling degree days 0 0  
Year to date cooling degree days 1439 1121  
Moisture  
Dew Point 23 °F    
Average Humidity 72    
Maximum Humidity 100    
Minimum Humidity 43    
Precipitation  
Precipitation 0.00 in 0.10 in 2.70 in (1873)
Month to date precipitation 3.27 1.34  
Year to date precipitation 36.30 40.49  
Snow  
Snow 0.00 in 0.20 in 4.20 in (1942)
Month to date snowfall T 1.4  
Since 1 July snowfall T 2.2  
Snow Depth 0.00 in    
Sea Level Pressure  
Sea Level Pressure 30.36 in    
Wind  
Wind Speed 2 mph (SE)    
Max Wind Speed 8 mph    
Max Gust Speed 10 mph    
Visibility 9 miles    
Events      
T = Trace of Precipitation, MM = Missing Value Source: NWS Daily Summary

Daily Weather History Graph

Daily Weather History Graph

Search for Another Location

Airport:

Trip Planner

Search our weather history database for the weather conditions in past years. The results will help you decide how hot, cold, wet, or windy it might be!

Date:

Astronomy

Dec. 12, 2012 Rise Set
Actual Time 7:48 AM EST 5:16 PM EST
Civil Twilight 7:18 AM EST 5:46 PM EST
Nautical Twilight 6:45 AM EST 6:20 PM EST
Astronomical Twilight 6:12 AM EST 6:52 PM EST
Moon 6:52 AM EST (12/12) 4:52 PM EST (12/12)
Length of Visible Light 10h 27m
Length of Day
9h 27m
Waning Crescent, 1% of the Moon is Illuminated
Dec 12
Waning Crescent
Dec 13
New
Dec 20
First Quarter
Dec 28
Full
Jan 4
Last Quarter

Hourly Weather History & Observations

Time (EST) Temp. Windchill Dew Point Humidity Pressure Visibility Wind Dir Wind Speed Gust Speed Precip Events Conditions
12:52 AM 25.0 °F 18.1 °F 21.0 °F 85% 30.27 in 9.0 mi South 5.8 mph - N/A   Clear
1:52 AM 25.0 °F - 21.9 °F 88% 30.29 in 9.0 mi Calm Calm - N/A   Clear
2:52 AM 23.0 °F - 21.0 °F 92% 30.30 in 7.0 mi Calm Calm - N/A   Clear
3:52 AM 24.1 °F - 21.0 °F 88% 30.32 in 8.0 mi Calm Calm - N/A   Clear
4:52 AM 25.0 °F 19.3 °F 21.0 °F 85% 30.33 in 8.0 mi SSW 4.6 mph - N/A   Clear
5:52 AM 23.0 °F - 19.9 °F 88% 30.34 in 8.0 mi Calm Calm - N/A   Clear
6:52 AM 21.9 °F - 19.9 °F 92% 30.37 in 6.0 mi Calm Calm - N/A   Clear
7:52 AM 19.9 °F 14.9 °F 19.0 °F 96% 30.38 in 6.0 mi SSE 3.5 mph - N/A   Clear
8:52 AM 25.0 °F 20.7 °F 23.0 °F 92% 30.40 in 7.0 mi South 3.5 mph - N/A   Clear
9:52 AM 32.0 °F 27.5 °F 27.0 °F 82% 30.40 in 7.0 mi South 4.6 mph - N/A   Clear
10:52 AM 36.0 °F 33.3 °F 26.1 °F 67% 30.42 in 10.0 mi ESE 3.5 mph - N/A   Clear
11:52 AM 37.9 °F 34.4 °F 25.0 °F 60% 30.41 in 10.0 mi SSE 4.6 mph - N/A   Clear
12:52 PM 39.9 °F 37.8 °F 26.1 °F 58% 30.38 in 10.0 mi Variable 3.5 mph - N/A   Clear
1:52 PM 41.0 °F 39.0 °F 23.0 °F 49% 30.37 in 10.0 mi Variable 3.5 mph - N/A   Clear
2:52 PM 42.1 °F - 21.9 °F 45% 30.36 in 10.0 mi Calm Calm - N/A   Clear
3:52 PM 42.1 °F - 24.1 °F 49% 30.36 in 10.0 mi Calm Calm - N/A   Clear
4:52 PM 39.9 °F 36.7 °F 24.1 °F 53% 30.37 in 10.0 mi ENE 4.6 mph - N/A   Clear
5:52 PM 37.9 °F - 23.0 °F 55% 30.38 in 10.0 mi Calm Calm - N/A   Clear
6:52 PM 33.1 °F 30.0 °F 24.1 °F 70% 30.39 in 10.0 mi SE 3.5 mph - N/A   Clear
7:52 PM 30.9 °F 27.5 °F 24.1 °F 76% 30.40 in 10.0 mi ESE 3.5 mph - N/A   Clear
8:52 PM 32.0 °F - 24.1 °F 73% 30.40 in 10.0 mi Calm Calm - N/A   Clear
9:52 PM 28.9 °F - 23.0 °F 78% 30.40 in 10.0 mi Calm Calm - N/A   Clear
10:52 PM 28.9 °F - 21.9 °F 75% 30.40 in 10.0 mi Calm Calm - N/A   Clear
11:52 PM 28.0 °F 24.2 °F 21.9 °F 78% 30.39 in 10.0 mi NE 3.5 mph - N/A   Clear